| time (UTC) | temp F | wind direction | speed MPH | gust MPH | rain 1hr in | rain 24hr in | rain mn in | humidity % | barometer mb |
| 20260504044616 | 55 | 211 | 10.0 | 17.0 | 0.00 | 0.01 | 0.01 | 60 | 1008.2 |
| 20260504043046 | 55 | 217 | 12.0 | 17.0 | 0.00 | 0.01 | 0.01 | 62 | 1008.1 |
| 20260504041538 | 56 | 217 | 12.0 | 20.0 | 0.00 | 0.01 | 0.01 | 61 | 1008.2 |
| 20260504040023 | 56 | 199 | 12.0 | 17.0 | 0.00 | 0.01 | 0.01 | 59 | 1008.1 |
| 20260504034519 | 55 | 218 | 11.0 | 16.0 | 0.00 | 0.01 | 0.01 | 61 | 1008.1 |
| 20260504033059 | 55 | 217 | 9.0 | 12.0 | 0.00 | 0.01 | 0.01 | 63 | 1008.2 |
| 20260504031558 | 55 | 206 | 8.0 | 12.0 | 0.00 | 0.01 | 0.01 | 63 | 1008.2 |
| 20260504030041 | 55 | 212 | 10.0 | 12.0 | 0.00 | 0.01 | 0.01 | 62 | 1008.3 |
| 20260504024539 | 55 | 220 | 8.0 | 13.0 | 0.00 | 0.01 | 0.01 | 64 | 1008.3 |
| 20260504023024 | 54 | 228 | 5.0 | 9.0 | 0.00 | 0.01 | 0.01 | 69 | 1008.4 |
| 20260504021519 | 53 | 360 | 4.0 | 7.0 | 0.00 | 0.01 | 0.01 | 73 | 1008.6 |
| 20260504020002 | 52 | 360 | 4.0 | 8.0 | 0.00 | 0.01 | 0.01 | 77 | 1008.6 |
| 20260504014505 | 51 | 360 | 3.0 | 5.0 | 0.00 | 0.01 | 0.01 | 83 | 1008.7 |
| 20260504013052 | 51 | 360 | 2.0 | 6.0 | 0.00 | 0.01 | 0.01 | 83 | 1008.8 |
| 20260504011542 | 51 | 360 | 5.0 | 9.0 | 0.00 | 0.01 | 0.01 | 84 | 1008.8 |
| 20260504010023 | 50 | 360 | 4.0 | 9.0 | 0.01 | 0.01 | 0.01 | 86 | 1009.0 |
| 20260504004523 | 50 | 360 | 3.0 | 5.0 | 0.01 | 0.01 | 0.01 | 86 | 1009.3 |
| 20260504003006 | 50 | 360 | 3.0 | 5.0 | 0.01 | 0.01 | 0.01 | 86 | 1009.2 |
| 20260504001503 | 50 | 360 | 3.0 | 7.0 | 0.01 | 0.01 | 0.01 | 84 | 1009.6 |
| 20260504000045 | 51 | 360 | 3.0 | 8.0 | 0.00 | 0.00 | 0.00 | 80 | 1009.5 |
| 20260503234543 | 52 | 360 | 7.0 | 12.0 | 0.00 | 0.00 | 0.00 | 77 | 1009.3 |
| 20260503233025 | 52 | 360 | 11.0 | 17.0 | 0.00 | 0.00 | 0.00 | 74 | 1009.4 |
| 20260503231525 | 54 | 360 | 9.0 | 18.0 | 0.00 | 0.00 | 0.00 | 67 | 1009.3 |
| 20260503230006 | 54 | 250 | 11.0 | 17.0 | 0.00 | 0.00 | 0.00 | 62 | 1008.9 |
| 20260503224509 | 54 | 226 | 11.0 | 19.0 | 0.00 | 0.00 | 0.00 | 60 | 1008.8 |
| 20260503223048 | 55 | 223 | 14.0 | 22.0 | 0.00 | 0.00 | 0.00 | 60 | 1008.6 |
| 20260503221546 | 55 | 238 | 11.0 | 19.0 | 0.00 | 0.00 | 0.00 | 58 | 1008.6 |
| 20260503220029 | 55 | 207 | 9.0 | 14.0 | 0.00 | 0.00 | 0.00 | 56 | 1008.6 |
| 20260503214528 | 56 | 248 | 9.0 | 21.0 | 0.00 | 0.00 | 0.00 | 55 | 1008.5 |
| 20260503213009 | 56 | 177 | 15.0 | 21.0 | 0.00 | 0.00 | 0.00 | 57 | 1008.3 |
| 20260503211508 | 56 | 214 | 12.0 | 16.0 | 0.00 | 0.00 | 0.00 | 54 | 1009.2 |
| 20260503210050 | 56 | 216 | 14.0 | 18.0 | 0.00 | 0.00 | 0.00 | 53 | 1009.0 |
| 20260503204549 | 56 | 237 | 9.0 | 20.0 | 0.00 | 0.00 | 0.00 | 51 | 1008.8 |
| 20260503203034 | 56 | 231 | 11.0 | 18.0 | 0.00 | 0.00 | 0.00 | 49 | 1009.0 |
| 20260503201528 | 56 | 223 | 11.0 | 18.0 | 0.00 | 0.00 | 0.00 | 49 | 1009.1 |
| 20260503200011 | 56 | 283 | 12.0 | 21.0 | 0.00 | 0.00 | 0.00 | 46 | 1009.3 |
| 20260503194507 | 55 | 240 | 7.0 | 19.0 | 0.00 | 0.00 | 0.00 | 50 | 1009.7 |
| 20260503193048 | 55 | 207 | 15.0 | 23.0 | 0.00 | 0.00 | 0.00 | 49 | 1010.0 |
| 20260503191543 | 55 | 217 | 15.0 | 20.0 | 0.00 | 0.00 | 0.00 | 47 | 1010.4 |
| 20260503190021 | 52 | 201 | 15.0 | 21.0 | 0.00 | 0.00 | 0.00 | 57 | 1010.5 |
| 20260503184520 | 47 | 360 | 7.0 | 12.0 | 0.00 | 0.00 | 0.00 | 68 | 1011.0 |
| 20260503183001 | 49 | 75 | 6.0 | 9.0 | 0.00 | 0.00 | 0.00 | 65 | 1011.2 |
| 20260503181604 | 50 | 2 | 2.0 | 7.0 | 0.00 | 0.00 | 0.00 | 65 | 1011.2 |
| 20260503180049 | 49 | 327 | 3.0 | 10.0 | 0.00 | 0.00 | 0.00 | 67 | 1011.4 |
| 20260503174544 | 51 | 354 | 3.0 | 7.0 | 0.00 | 0.00 | 0.00 | 63 | 1011.6 |
| 20260503173020 | 50 | 23 | 2.0 | 6.0 | 0.00 | 0.00 | 0.00 | 65 | 1011.8 |
| 20260503171518 | 50 | 305 | 3.0 | 8.0 | 0.00 | 0.00 | 0.00 | 64 | 1012.1 |
| 20260503170111 | 50 | 356 | 2.0 | 7.0 | 0.00 | 0.00 | 0.00 | 63 | 1012.2 |
| 20260503081552 | 37 | 117 | 1.0 | 3.0 | 0.00 | 0.00 | 0.00 | 83 | 1013.7 |
| 20260503071535 | 38 | 82 | 1.0 | 4.0 | 0.00 | 0.00 | 0.00 | 81 | 1013.8 |
| 20260503060104 | 40 | 83 | 2.0 | 3.0 | 0.00 | 0.00 | 0.00 | 76 | 1014.1 |
| 20260503054512 | 40 | 117 | 1.0 | 3.0 | 0.00 | 0.00 | 0.00 | 75 | 1014.1 |
| 20260503053013 | 41 | 94 | 1.0 | 4.0 | 0.00 | 0.00 | 0.00 | 74 | 1014.1 |
| 20260503051554 | 42 | 113 | 1.0 | 4.0 | 0.00 | 0.00 | 0.00 | 73 | 1014.3 |
| 20260503050054 | 42 | 133 | 1.0 | 6.0 | 0.00 | 0.00 | 0.00 | 71 | 1014.3 |